Time,TemperatureF,DewpointF,PressureIn,WindDirection,WindDirectionDegrees,WindSpeedMPH,WindSpeedGustMPH,Humidity,HourlyPrecipIn,Conditions,Clouds,dailyrainin,SoftwareType,DateUTC
2013-03-12 00:03:00,66.0,61.0,29.93,East,92,1.0,1.0,84,0.00,,,0.00,Wunderground v.1.15,2013-03-12 04:03:00,
2013-03-12 00:08:00,66.1,61.1,29.93,ENE,60,1.0,1.0,84,0.00,,,0.00,Wunderground v.1.15,2013-03-12 04:08:00,
2013-03-12 00:13:00,66.1,61.5,29.93,ENE,72,0.0,1.0,85,0.00,,,0.00,Wunderground v.1.15,2013-03-12 04:13:00,
2013-03-12 00:18:00,66.2,61.6,29.92,NW,305,1.0,3.0,85,0.00,,,0.00,Wunderground v.1.15,2013-03-12 04:18:00,
2013-03-12 00:23:00,66.2,61.6,29.92,NNW,332,2.0,3.0,85,0.00,,,0.00,Wunderground v.1.15,2013-03-12 04:23:00,
2013-03-12 00:33:00,65.9,61.6,29.92,ENE,65,1.0,1.0,86,0.00,,,0.00,Wunderground v.1.15,2013-03-12 04:33:00,
2013-03-12 00:38:00,65.9,61.6,29.92,NE,38,1.0,1.0,86,0.00,,,0.00,Wunderground v.1.15,2013-03-12 04:38:00,
2013-03-12 00:43:00,66.0,62.0,29.92,ENE,75,0.0,1.0,87,0.00,,,0.00,Wunderground v.1.15,2013-03-12 04:43:00,
2013-03-12 00:53:00,66.0,61.7,29.90,ENE,72,1.0,1.0,86,0.00,,,0.00,Wunderground v.1.15,2013-03-12 04:53:00,
2013-03-12 00:58:00,66.1,61.8,29.90,East,82,1.0,3.0,86,0.00,,,0.00,Wunderground v.1.15,2013-03-12 04:58:00,
2013-03-12 01:03:00,66.2,61.9,29.89,NNW,342,1.0,3.0,86,0.00,,,0.00,Wunderground v.1.15,2013-03-12 05:03:00,
2013-03-12 01:08:00,66.2,61.9,29.89,NNE,30,1.0,1.0,86,0.00,,,0.00,Wunderground v.1.15,2013-03-12 05:08:00,
2013-03-12 01:13:00,66.3,62.0,29.88,West,278,1.0,2.0,86,0.00,,,0.00,Wunderground v.1.15,2013-03-12 05:13:00,
2013-03-12 01:18:00,66.3,62.0,29.88,NNE,15,1.0,3.0,86,0.00,,,0.00,Wunderground v.1.15,2013-03-12 05:18:00,
2013-03-12 01:23:00,66.4,62.1,29.88,North,349,2.0,3.0,86,0.00,,,0.00,Wunderground v.1.15,2013-03-12 05:23:00,
2013-03-12 01:28:00,66.4,61.8,29.88,NE,43,2.0,2.0,85,0.00,,,0.00,Wunderground v.1.15,2013-03-12 05:28:00,
2013-03-12 01:33:00,66.5,62.2,29.88,NE,41,1.0,2.0,86,0.00,,,0.00,Wunderground v.1.15,2013-03-12 05:33:00,
2013-03-12 01:38:00,66.5,62.2,29.88,ENE,78,2.0,2.0,86,0.00,,,0.00,Wunderground v.1.15,2013-03-12 05:38:00,
2013-03-12 01:43:00,66.4,62.1,29.88,ENE,58,2.0,2.0,86,0.00,,,0.00,Wunderground v.1.15,2013-03-12 05:43:00,
2013-03-12 01:48:00,66.5,62.2,29.88,ENE,70,1.0,1.0,86,0.00,,,0.00,Wunderground v.1.15,2013-03-12 05:48:00,
2013-03-12 01:53:00,66.5,62.2,29.88,NNE,33,1.0,2.0,86,0.00,,,0.00,Wunderground v.1.15,2013-03-12 05:53:00,
2013-03-12 01:58:00,66.6,62.3,29.88,WNW,284,2.0,2.0,86,0.00,,,0.00,Wunderground v.1.15,2013-03-12 05:58:00,
2013-03-12 02:03:00,66.6,61.9,29.88,NNE,23,2.0,2.0,85,0.00,,,0.00,Wunderground v.1.15,2013-03-12 06:03:00,
2013-03-12 02:08:00,66.7,62.0,29.88,East,82,1.0,2.0,85,0.00,,,0.00,Wunderground v.1.15,2013-03-12 06:08:00,
2013-03-12 02:13:00,66.7,62.4,29.88,ENE,72,1.0,2.0,86,0.00,,,0.00,Wunderground v.1.15,2013-03-12 06:13:00,
2013-03-12 02:18:00,66.8,62.1,29.89,ENE,64,2.0,2.0,85,0.00,,,0.00,Wunderground v.1.15,2013-03-12 06:18:00,
2013-03-12 02:23:00,66.8,62.1,29.89,ENE,61,2.0,2.0,85,0.00,,,0.00,Wunderground v.1.15,2013-03-12 06:23:00,
2013-03-12 02:28:00,66.7,62.4,29.88,ENE,57,2.0,2.0,86,0.00,,,0.00,Wunderground v.1.15,2013-03-12 06:28:00,
2013-03-12 02:33:00,66.7,62.4,29.88,NNW,330,2.0,2.0,86,0.00,,,0.00,Wunderground v.1.15,2013-03-12 06:33:00,
2013-03-12 02:38:00,66.7,62.4,29.88,ENE,70,1.0,1.0,86,0.00,,,0.00,Wunderground v.1.15,2013-03-12 06:38:00,
2013-03-12 02:48:00,66.4,62.1,29.87,ENE,77,1.0,1.0,86,0.00,,,0.00,Wunderground v.1.15,2013-03-12 06:48:00,
2013-03-12 02:53:00,66.3,62.3,29.87,ENE,78,1.0,1.0,87,0.00,,,0.00,Wunderground v.1.15,2013-03-12 06:53:00,
2013-03-12 02:58:00,66.2,62.2,29.87,ESE,110,1.0,2.0,87,0.00,,,0.00,Wunderground v.1.15,2013-03-12 06:58:00,
2013-03-12 03:08:00,66.0,62.0,29.86,East,79,1.0,1.0,87,0.00,,,0.00,Wunderground v.1.15,2013-03-12 07:08:00,
2013-03-12 03:13:00,66.0,62.3,29.87,ENE,60,1.0,1.0,88,0.00,,,0.00,Wunderground v.1.15,2013-03-12 07:13:00,
2013-03-12 03:18:00,66.0,62.3,29.86,NE,41,1.0,3.0,88,0.00,,,0.00,Wunderground v.1.15,2013-03-12 07:18:00,
2013-03-12 03:23:00,66.0,62.3,29.86,ENE,68,2.0,3.0,88,0.00,,,0.00,Wunderground v.1.15,2013-03-12 07:23:00,
2013-03-12 03:28:00,66.0,62.3,29.86,ENE,63,1.0,2.0,88,0.00,,,0.00,Wunderground v.1.15,2013-03-12 07:28:00,
2013-03-12 03:33:00,66.0,62.3,29.86,NE,56,1.0,2.0,88,0.00,,,0.00,Wunderground v.1.15,2013-03-12 07:33:00,
2013-03-12 03:38:00,66.0,62.3,29.86,ESE,110,1.0,2.0,88,0.00,,,0.00,Wunderground v.1.15,2013-03-12 07:38:00,
2013-03-12 03:43:00,66.1,62.4,29.86,ENE,66,1.0,2.0,88,0.00,,,0.00,Wunderground v.1.15,2013-03-12 07:43:00,
2013-03-12 03:48:00,66.1,62.4,29.86,East,88,1.0,1.0,88,0.00,,,0.00,Wunderground v.1.15,2013-03-12 07:48:00,
2013-03-12 03:53:00,66.2,62.2,29.86,NE,49,1.0,1.0,87,0.00,,,0.00,Wunderground v.1.15,2013-03-12 07:53:00,
2013-03-12 03:58:00,66.3,62.3,29.85,East,96,1.0,1.0,87,0.00,,,0.00,Wunderground v.1.15,2013-03-12 07:58:00,
2013-03-12 04:03:00,66.3,62.3,29.86,NE,40,1.0,1.0,87,0.00,,,0.00,Wunderground v.1.15,2013-03-12 08:03:00,
2013-03-12 04:08:00,66.4,62.4,29.86,ESE,113,1.0,4.0,87,0.00,,,0.00,Wunderground v.1.15,2013-03-12 08:08:00,
2013-03-12 04:13:00,66.5,62.5,29.85,NNE,27,2.0,4.0,87,0.00,,,0.00,Wunderground v.1.15,2013-03-12 08:13:00,
2013-03-12 04:18:00,66.5,62.2,29.85,NNE,15,2.0,3.0,86,0.00,,,0.00,Wunderground v.1.15,2013-03-12 08:18:00,
2013-03-12 04:23:00,66.6,62.3,29.85,ENE,78,1.0,3.0,86,0.00,,,0.00,Wunderground v.1.15,2013-03-12 08:23:00,
2013-03-12 04:28:00,66.5,62.2,29.85,East,82,1.0,1.0,86,0.00,,,0.00,Wunderground v.1.15,2013-03-12 08:28:00,
2013-03-12 04:33:00,66.4,62.4,29.85,NE,40,1.0,2.0,87,0.00,,,0.00,Wunderground v.1.15,2013-03-12 08:33:00,
2013-03-12 04:38:00,66.2,62.2,29.85,ENE,74,1.0,1.0,87,0.00,,,0.00,Wunderground v.1.15,2013-03-12 08:38:00,
2013-03-12 04:43:00,66.1,62.4,29.85,East,82,1.0,1.0,88,0.00,,,0.00,Wunderground v.1.15,2013-03-12 08:43:00,
2013-03-12 04:48:00,65.9,62.2,29.86,ENE,64,1.0,1.0,88,0.00,,,0.00,Wunderground v.1.15,2013-03-12 08:48:00,
2013-03-12 04:53:00,65.9,62.2,29.85,NNE,22,1.0,1.0,88,0.00,,,0.00,Wunderground v.1.15,2013-03-12 08:53:00,
2013-03-12 04:58:00,65.9,62.2,29.85,ESE,102,1.0,1.0,88,0.00,,,0.00,Wunderground v.1.15,2013-03-12 08:58:00,
2013-03-12 05:03:00,65.9,62.2,29.84,NE,34,1.0,2.0,88,0.00,,,0.00,Wunderground v.1.15,2013-03-12 09:03:00,
2013-03-12 05:08:00,66.1,62.4,29.84,NNW,347,1.0,1.0,88,0.00,,,0.00,Wunderground v.1.15,2013-03-12 09:08:00,
2013-03-12 05:13:00,66.2,62.5,29.85,ENE,74,1.0,2.0,88,0.00,,,0.00,Wunderground v.1.15,2013-03-12 09:13:00,
2013-03-12 05:18:00,66.4,62.7,29.85,ENE,61,1.0,1.0,88,0.00,,,0.00,Wunderground v.1.15,2013-03-12 09:18:00,
2013-03-12 05:23:00,66.5,62.5,29.85,East,85,1.0,1.0,87,0.00,,,0.00,Wunderground v.1.15,2013-03-12 09:23:00,
2013-03-12 05:28:00,66.6,62.6,29.85,ENE,70,1.0,2.0,87,0.00,,,0.00,Wunderground v.1.15,2013-03-12 09:28:00,
2013-03-12 05:33:00,66.7,63.0,29.85,East,95,2.0,2.0,88,0.00,,,0.01,Wunderground v.1.15,2013-03-12 09:33:00,
2013-03-12 05:38:00,66.5,62.8,29.85,ENE,65,2.0,2.0,88,0.00,,,0.01,Wunderground v.1.15,2013-03-12 09:38:00,
2013-03-12 05:43:00,66.3,63.0,29.86,East,96,1.0,2.0,89,0.00,,,0.01,Wunderground v.1.15,2013-03-12 09:43:00,
2013-03-12 05:48:00,66.2,63.2,29.86,ENE,78,1.0,1.0,90,0.00,,,0.01,Wunderground v.1.15,2013-03-12 09:48:00,
2013-03-12 05:53:00,66.0,63.0,29.86,ENE,74,1.0,1.0,90,0.00,,,0.01,Wunderground v.1.15,2013-03-12 09:53:00,
2013-03-12 05:58:00,66.0,63.3,29.86,ENE,61,0.0,0.0,91,0.00,,,0.01,Wunderground v.1.15,2013-03-12 09:58:00,
2013-03-12 06:03:00,65.9,63.2,29.86,ENE,75,0.0,0.0,91,0.00,,,0.01,Wunderground v.1.15,2013-03-12 10:03:00,
2013-03-12 06:08:00,65.8,63.1,29.86,ENE,78,0.0,0.0,91,0.00,,,0.01,Wunderground v.1.15,2013-03-12 10:08:00,
2013-03-12 06:13:00,65.8,63.1,29.86,North,355,0.0,3.0,91,0.00,,,0.01,Wunderground v.1.15,2013-03-12 10:13:00,
2013-03-12 06:23:00,65.8,63.1,29.86,East,88,0.0,0.0,91,0.00,,,0.01,Wunderground v.1.15,2013-03-12 10:23:00,
2013-03-12 06:28:00,65.8,63.1,29.86,East,86,0.0,1.0,91,0.00,,,0.01,Wunderground v.1.15,2013-03-12 10:28:00,
2013-03-12 06:33:00,65.8,63.1,29.86,ENE,78,0.0,1.0,91,0.00,,,0.01,Wunderground v.1.15,2013-03-12 10:33:00,
2013-03-12 06:38:00,65.9,63.2,29.87,ESE,102,0.0,0.0,91,0.00,,,0.01,Wunderground v.1.15,2013-03-12 10:38:00,
2013-03-12 06:43:00,66.0,63.3,29.87,ESE,102,1.0,1.0,91,0.00,,,0.01,Wunderground v.1.15,2013-03-12 10:43:00,
2013-03-12 06:48:00,66.1,63.4,29.87,NNE,13,0.0,3.0,91,0.00,,,0.01,Wunderground v.1.15,2013-03-12 10:48:00,
2013-03-12 06:53:00,66.1,63.4,29.88,East,94,0.0,0.0,91,0.00,,,0.02,Wunderground v.1.15,2013-03-12 10:53:00,
2013-03-12 06:58:00,66.1,63.4,29.88,East,86,0.0,0.0,91,0.00,,,0.02,Wunderground v.1.15,2013-03-12 10:58:00,
2013-03-12 07:03:00,66.0,63.6,29.88,ENE,78,0.0,0.0,92,0.06,,,0.03,Wunderground v.1.15,2013-03-12 11:03:00,
2013-03-12 07:08:00,65.9,63.5,29.88,ENE,78,0.0,0.0,92,0.12,,,0.04,Wunderground v.1.15,2013-03-12 11:08:00,
2013-03-12 07:13:00,65.8,63.7,29.89,NE,41,0.0,1.0,93,0.19,,,0.06,Wunderground v.1.15,2013-03-12 11:13:00,
2013-03-12 07:18:00,65.6,63.5,29.89,ENE,60,0.0,0.0,93,0.12,,,0.07,Wunderground v.1.15,2013-03-12 11:18:00,
2013-03-12 07:23:00,65.4,63.6,29.88,ENE,60,0.0,0.0,94,0.06,,,0.07,Wunderground v.1.15,2013-03-12 11:23:00,
2013-03-12 07:28:00,65.3,63.5,29.88,ENE,60,0.0,0.0,94,0.04,,,0.07,Wunderground v.1.15,2013-03-12 11:28:00,
2013-03-12 07:33:00,65.2,63.4,29.88,ENE,61,0.0,0.0,94,0.00,,,0.08,Wunderground v.1.15,2013-03-12 11:33:00,
2013-03-12 07:38:00,65.1,63.6,29.89,NE,46,0.0,0.0,95,0.00,,,0.08,Wunderground v.1.15,2013-03-12 11:38:00,
2013-03-12 07:43:00,65.0,63.5,29.89,ENE,64,0.0,0.0,95,0.00,,,0.08,Wunderground v.1.15,2013-03-12 11:43:00,
2013-03-12 07:48:00,65.0,63.5,29.89,East,82,0.0,0.0,95,0.00,,,0.08,Wunderground v.1.15,2013-03-12 11:48:00,
2013-03-12 07:53:00,64.9,63.7,29.89,North,356,0.0,1.0,96,0.00,,,0.09,Wunderground v.1.15,2013-03-12 11:53:00,
2013-03-12 07:58:00,64.9,63.7,29.89,NE,46,0.0,0.0,96,0.00,,,0.09,Wunderground v.1.15,2013-03-12 11:58:00,
2013-03-12 08:03:00,64.9,63.7,29.89,ENE,72,0.0,0.0,96,0.00,,,0.09,Wunderground v.1.15,2013-03-12 12:03:00,
2013-03-12 08:08:00,64.9,63.7,29.89,ENE,76,0.0,0.0,96,0.00,,,0.09,Wunderground v.1.15,2013-03-12 12:08:00,
2013-03-12 08:13:00,64.8,63.6,29.89,NNE,19,0.0,1.0,96,0.00,,,0.09,Wunderground v.1.15,2013-03-12 12:13:00,
2013-03-12 08:23:00,64.7,63.5,29.89,NE,36,1.0,2.0,96,0.00,,,0.09,Wunderground v.1.15,2013-03-12 12:23:00,
2013-03-12 08:28:00,64.7,63.5,29.89,ESE,102,1.0,1.0,96,0.00,,,0.09,Wunderground v.1.15,2013-03-12 12:28:00,
2013-03-12 08:33:00,64.6,63.7,29.89,ENE,64,1.0,1.0,97,0.00,,,0.09,Wunderground v.1.15,2013-03-12 12:33:00,
2013-03-12 08:38:00,64.6,63.7,29.88,NNE,33,1.0,2.0,97,0.00,,,0.09,Wunderground v.1.15,2013-03-12 12:38:00,
2013-03-12 08:43:00,64.6,63.7,29.88,NE,53,1.0,2.0,97,0.00,,,0.10,Wunderground v.1.15,2013-03-12 12:43:00,
2013-03-12 08:48:00,64.5,63.6,29.88,ENE,77,1.0,1.0,97,0.00,,,0.10,Wunderground v.1.15,2013-03-12 12:48:00,
2013-03-12 08:53:00,64.5,63.6,29.89,ENE,68,1.0,1.0,97,0.00,,,0.10,Wunderground v.1.15,2013-03-12 12:53:00,
2013-03-12 08:58:00,64.5,63.6,29.89,East,80,1.0,1.0,97,0.00,,,0.10,Wunderground v.1.15,2013-03-12 12:58:00,
2013-03-12 09:08:00,64.5,63.6,29.89,ENE,72,1.0,1.0,97,0.00,,,0.10,Wunderground v.1.15,2013-03-12 13:08:00,
2013-03-12 09:13:00,64.5,63.6,29.89,North,6,1.0,1.0,97,0.00,,,0.10,Wunderground v.1.15,2013-03-12 13:13:00,
2013-03-12 09:18:00,64.5,63.6,29.89,East,89,1.0,1.0,97,0.00,,,0.10,Wunderground v.1.15,2013-03-12 13:18:00,
2013-03-12 09:23:00,64.5,63.6,29.89,NNW,334,1.0,4.0,97,0.00,,,0.11,Wunderground v.1.15,2013-03-12 13:23:00,
2013-03-12 09:28:00,64.5,63.9,29.90,East,82,1.0,1.0,98,0.00,,,0.11,Wunderground v.1.15,2013-03-12 13:28:00,
2013-03-12 09:33:00,64.5,63.9,29.89,NNE,25,1.0,1.0,98,0.00,,,0.11,Wunderground v.1.15,2013-03-12 13:33:00,
2013-03-12 09:43:00,64.5,63.9,29.90,ENE,75,1.0,4.0,98,0.00,,,0.11,Wunderground v.1.15,2013-03-12 13:43:00,
2013-03-12 09:48:00,64.5,63.9,29.90,NNW,330,1.0,3.0,98,0.00,,,0.11,Wunderground v.1.15,2013-03-12 13:48:00,
2013-03-12 09:53:00,64.5,63.9,29.90,ENE,66,1.0,3.0,98,0.00,,,0.11,Wunderground v.1.15,2013-03-12 13:53:00,
2013-03-12 09:58:00,64.5,63.9,29.90,NNE,29,1.0,1.0,98,0.00,,,0.11,Wunderground v.1.15,2013-03-12 13:58:00,
2013-03-12 10:03:00,64.6,64.0,29.90,SE,136,0.0,1.0,98,0.00,,,0.11,Wunderground v.1.15,2013-03-12 14:03:00,
2013-03-12 10:08:00,64.7,64.1,29.91,East,100,1.0,1.0,98,0.00,,,0.11,Wunderground v.1.15,2013-03-12 14:08:00,
2013-03-12 10:13:00,64.7,64.1,29.91,NNE,30,1.0,1.0,98,0.00,,,0.11,Wunderground v.1.15,2013-03-12 14:13:00,
2013-03-12 10:18:00,64.7,64.1,29.91,East,80,0.0,0.0,98,0.00,,,0.11,Wunderground v.1.15,2013-03-12 14:18:00,
2013-03-12 10:23:00,64.8,64.2,29.91,East,80,0.0,0.0,98,0.00,,,0.11,Wunderground v.1.15,2013-03-12 14:23:00,
2013-03-12 10:28:00,64.9,64.3,29.91,East,81,0.0,0.0,98,0.00,,,0.11,Wunderground v.1.15,2013-03-12 14:28:00,
2013-03-12 10:38:00,65.1,64.5,29.91,ENE,76,1.0,1.0,98,0.00,,,0.12,Wunderground v.1.15,2013-03-12 14:38:00,
2013-03-12 10:43:00,65.2,64.6,29.92,East,84,1.0,1.0,98,0.00,,,0.12,Wunderground v.1.15,2013-03-12 14:43:00,
2013-03-12 10:48:00,65.3,64.7,29.92,ENE,65,0.0,1.0,98,0.00,,,0.12,Wunderground v.1.15,2013-03-12 14:48:00,
2013-03-12 10:53:00,65.5,64.9,29.92,ENE,78,0.0,1.0,98,0.00,,,0.12,Wunderground v.1.15,2013-03-12 14:53:00,
2013-03-12 10:58:00,65.5,64.9,29.92,NE,56,0.0,0.0,98,0.00,,,0.12,Wunderground v.1.15,2013-03-12 14:58:00,
2013-03-12 11:03:00,65.6,65.0,29.92,East,79,1.0,1.0,98,0.00,,,0.13,Wunderground v.1.15,2013-03-12 15:03:00,
2013-03-12 11:08:00,65.6,65.0,29.92,East,82,1.0,1.0,98,0.00,,,0.13,Wunderground v.1.15,2013-03-12 15:08:00,
2013-03-12 11:13:00,65.8,65.2,29.92,ENE,74,1.0,1.0,98,0.00,,,0.13,Wunderground v.1.15,2013-03-12 15:13:00,
2013-03-12 11:18:00,65.8,65.2,29.92,ENE,65,0.0,0.0,98,0.00,,,0.13,Wunderground v.1.15,2013-03-12 15:18:00,
2013-03-12 11:23:00,66.0,65.4,29.92,ENE,64,1.0,1.0,98,0.00,,,0.13,Wunderground v.1.15,2013-03-12 15:23:00,
2013-03-12 11:28:00,66.1,65.8,29.92,ENE,71,1.0,1.0,99,0.00,,,0.13,Wunderground v.1.15,2013-03-12 15:28:00,
2013-03-12 11:38:00,66.5,65.9,29.92,ESE,110,1.0,1.0,98,0.00,,,0.13,Wunderground v.1.15,2013-03-12 15:38:00,
2013-03-12 11:43:00,66.6,66.0,29.93,East,101,1.0,1.0,98,0.00,,,0.13,Wunderground v.1.15,2013-03-12 15:43:00,
2013-03-12 11:48:00,66.8,66.2,29.92,ENE,64,1.0,1.0,98,0.00,,,0.13,Wunderground v.1.15,2013-03-12 15:48:00,
2013-03-12 11:53:00,66.9,66.3,29.92,ENE,74,1.0,1.0,98,0.00,,,0.13,Wunderground v.1.15,2013-03-12 15:53:00,
2013-03-12 11:58:00,67.0,66.4,29.92,ESE,108,0.0,0.0,98,0.00,,,0.13,Wunderground v.1.15,2013-03-12 15:58:00,
2013-03-12 12:03:00,67.1,66.8,29.92,ESE,105,1.0,1.0,99,0.00,,,0.13,Wunderground v.1.15,2013-03-12 16:03:00,
2013-03-12 12:08:00,67.4,67.1,29.92,ENE,77,0.0,0.0,99,0.00,,,0.13,Wunderground v.1.15,2013-03-12 16:08:00,
2013-03-12 12:13:00,67.6,67.0,29.92,East,93,0.0,0.0,98,0.00,,,0.13,Wunderground v.1.15,2013-03-12 16:13:00,
2013-03-12 12:18:00,67.7,67.1,29.92,ENE,66,0.0,1.0,98,0.00,,,0.13,Wunderground v.1.15,2013-03-12 16:18:00,
2013-03-12 12:23:00,67.7,67.1,29.92,ENE,75,1.0,2.0,98,0.00,,,0.13,Wunderground v.1.15,2013-03-12 16:23:00,
2013-03-12 12:28:00,68.0,67.4,29.93,East,95,1.0,1.0,98,0.00,,,0.13,Wunderground v.1.15,2013-03-12 16:28:00,
2013-03-12 12:33:00,68.2,67.6,29.92,East,95,0.0,1.0,98,0.00,,,0.13,Wunderground v.1.15,2013-03-12 16:33:00,
2013-03-12 12:38:00,68.3,67.7,29.92,East,101,0.0,0.0,98,0.00,,,0.13,Wunderground v.1.15,2013-03-12 16:38:00,
2013-03-12 12:43:00,68.2,67.3,29.93,ESE,108,1.0,2.0,97,0.00,,,0.13,Wunderground v.1.15,2013-03-12 16:43:00,
2013-03-12 12:53:00,67.9,67.0,29.92,ESE,108,2.0,2.0,97,0.00,,,0.13,Wunderground v.1.15,2013-03-12 16:53:00,
2013-03-12 12:58:00,68.0,66.8,29.92,East,96,2.0,2.0,96,0.00,,,0.13,Wunderground v.1.15,2013-03-12 16:58:00,
2013-03-12 13:03:00,68.1,66.6,29.93,ESE,113,2.0,2.0,95,0.00,,,0.13,Wunderground v.1.15,2013-03-12 17:03:00,
2013-03-12 13:08:00,68.3,66.8,29.92,East,84,1.0,3.0,95,0.00,,,0.13,Wunderground v.1.15,2013-03-12 17:08:00,
2013-03-12 13:13:00,68.3,66.5,29.92,East,85,2.0,3.0,94,0.00,,,0.13,Wunderground v.1.15,2013-03-12 17:13:00,
2013-03-12 13:18:00,68.4,66.3,29.92,East,100,2.0,2.0,93,0.00,,,0.13,Wunderground v.1.15,2013-03-12 17:18:00,
2013-03-12 13:23:00,68.4,66.0,29.92,ESE,106,2.0,2.0,92,0.00,,,0.13,Wunderground v.1.15,2013-03-12 17:23:00,
2013-03-12 13:28:00,68.4,65.7,29.92,SE,141,2.0,2.0,91,0.00,,,0.13,Wunderground v.1.15,2013-03-12 17:28:00,
2013-03-12 13:33:00,68.1,65.1,29.92,ESE,115,2.0,2.0,90,0.00,,,0.13,Wunderground v.1.15,2013-03-12 17:33:00,
2013-03-12 13:38:00,68.0,65.3,29.92,ESE,115,2.0,2.0,91,0.00,,,0.13,Wunderground v.1.15,2013-03-12 17:38:00,
2013-03-12 13:48:00,67.9,65.2,29.92,ENE,74,1.0,2.0,91,0.00,,,0.13,Wunderground v.1.15,2013-03-12 17:48:00,
2013-03-12 13:53:00,67.9,65.2,29.92,ESE,119,1.0,2.0,91,0.00,,,0.13,Wunderground v.1.15,2013-03-12 17:53:00,
2013-03-12 13:58:00,67.9,64.9,29.92,East,101,1.0,1.0,90,0.00,,,0.13,Wunderground v.1.15,2013-03-12 17:58:00,
2013-03-12 14:03:00,67.9,65.2,29.92,East,94,1.0,1.0,91,0.00,,,0.13,Wunderground v.1.15,2013-03-12 18:03:00,
2013-03-12 14:08:00,67.9,64.9,29.92,East,101,1.0,1.0,90,0.00,,,0.13,Wunderground v.1.15,2013-03-12 18:08:00,
2013-03-12 14:13:00,67.8,64.8,29.92,East,89,1.0,3.0,90,0.00,,,0.13,Wunderground v.1.15,2013-03-12 18:13:00,
2013-03-12 14:18:00,67.7,64.7,29.92,East,99,1.0,1.0,90,0.00,,,0.13,Wunderground v.1.15,2013-03-12 18:18:00,
2013-03-12 14:23:00,67.3,64.3,29.91,East,81,1.0,3.0,90,0.00,,,0.13,Wunderground v.1.15,2013-03-12 18:23:00,
2013-03-12 14:28:00,66.9,63.9,29.92,East,79,2.0,2.0,90,0.00,,,0.13,Wunderground v.1.15,2013-03-12 18:28:00,
2013-03-12 14:33:00,66.8,63.8,29.91,ESE,107,2.0,2.0,90,0.00,,,0.13,Wunderground v.1.15,2013-03-12 18:33:00,
2013-03-12 14:38:00,66.3,63.3,29.91,East,98,2.0,2.0,90,0.00,,,0.13,Wunderground v.1.15,2013-03-12 18:38:00,
2013-03-12 14:43:00,65.8,62.8,29.92,SSE,147,3.0,3.0,90,0.00,,,0.13,Wunderground v.1.15,2013-03-12 18:43:00,
2013-03-12 14:48:00,65.2,62.2,29.91,ESE,107,3.0,3.0,90,0.00,,,0.13,Wunderground v.1.15,2013-03-12 18:48:00,
2013-03-12 14:58:00,65.9,62.9,29.91,East,84,2.0,2.0,90,0.00,,,0.13,Wunderground v.1.15,2013-03-12 18:58:00,
2013-03-12 15:03:00,66.3,63.0,29.91,SSE,148,2.0,2.0,89,0.00,,,0.13,Wunderground v.1.15,2013-03-12 19:03:00,
2013-03-12 15:08:00,66.6,62.9,29.91,East,92,2.0,2.0,88,0.00,,,0.13,Wunderground v.1.15,2013-03-12 19:08:00,
2013-03-12 15:13:00,67.0,63.0,29.91,SE,132,1.0,2.0,87,0.00,,,0.13,Wunderground v.1.15,2013-03-12 19:13:00,
2013-03-12 15:18:00,67.5,63.2,29.90,SE,131,1.0,1.0,86,0.00,,,0.13,Wunderground v.1.15,2013-03-12 19:18:00,
2013-03-12 15:23:00,68.1,63.4,29.90,ESE,109,1.0,2.0,85,0.00,,,0.13,Wunderground v.1.15,2013-03-12 19:23:00,
2013-03-12 15:28:00,68.4,63.4,29.90,SE,136,1.0,2.0,84,0.00,,,0.13,Wunderground v.1.15,2013-03-12 19:28:00,
2013-03-12 15:33:00,68.6,63.2,29.90,SE,129,2.0,2.0,83,0.00,,,0.13,Wunderground v.1.15,2013-03-12 19:33:00,
2013-03-12 15:38:00,69.0,63.6,29.90,East,97,1.0,2.0,83,0.00,,,0.13,Wunderground v.1.15,2013-03-12 19:38:00,
2013-03-12 15:43:00,69.3,63.6,29.89,SSE,159,2.0,3.0,82,0.00,,,0.13,Wunderground v.1.15,2013-03-12 19:43:00,
2013-03-12 15:48:00,69.3,63.2,29.89,ENE,58,2.0,2.0,81,0.00,,,0.13,Wunderground v.1.15,2013-03-12 19:48:00,
2013-03-12 15:53:00,69.3,63.2,29.90,ESE,123,2.0,2.0,81,0.00,,,0.13,Wunderground v.1.15,2013-03-12 19:53:00,
2013-03-12 15:58:00,69.2,63.1,29.90,ESE,106,3.0,3.0,81,0.00,,,0.13,Wunderground v.1.15,2013-03-12 19:58:00,
2013-03-12 16:03:00,69.2,62.8,29.90,ENE,74,2.0,3.0,80,0.00,,,0.13,Wunderground v.1.15,2013-03-12 20:03:00,
2013-03-12 16:08:00,69.2,63.1,29.90,East,83,2.0,2.0,81,0.00,,,0.13,Wunderground v.1.15,2013-03-12 20:08:00,
2013-03-12 16:13:00,69.2,63.1,29.90,East,91,2.0,2.0,81,0.00,,,0.13,Wunderground v.1.15,2013-03-12 20:13:00,
2013-03-12 16:18:00,69.4,63.3,29.90,SE,134,1.0,1.0,81,0.00,,,0.13,Wunderground v.1.15,2013-03-12 20:18:00,
2013-03-12 16:23:00,69.6,63.2,29.90,ESE,103,2.0,2.0,80,0.00,,,0.13,Wunderground v.1.15,2013-03-12 20:23:00,
2013-03-12 16:28:00,69.6,63.2,29.90,SE,142,2.0,3.0,80,0.00,,,0.13,Wunderground v.1.15,2013-03-12 20:28:00,
2013-03-12 16:33:00,69.5,62.7,29.91,SSE,152,2.0,3.0,79,0.00,,,0.13,Wunderground v.1.15,2013-03-12 20:33:00,
2013-03-12 16:38:00,69.1,62.3,29.90,SE,132,3.0,4.0,79,0.00,,,0.13,Wunderground v.1.15,2013-03-12 20:38:00,
2013-03-12 16:43:00,68.8,61.7,29.90,ESE,123,3.0,8.0,78,0.00,,,0.13,Wunderground v.1.15,2013-03-12 20:43:00,
2013-03-12 16:48:00,69.0,61.5,29.90,East,92,3.0,3.0,77,0.00,,,0.13,Wunderground v.1.15,2013-03-12 20:48:00,
2013-03-12 16:53:00,69.0,61.5,29.91,SE,138,3.0,4.0,77,0.00,,,0.13,Wunderground v.1.15,2013-03-12 20:53:00,
2013-03-12 16:58:00,69.0,61.1,29.91,East,93,2.0,5.0,76,0.00,,,0.13,Wunderground v.1.15,2013-03-12 20:58:00,
2013-03-12 17:03:00,69.0,61.1,29.91,ENE,68,2.0,5.0,76,0.00,,,0.13,Wunderground v.1.15,2013-03-12 21:03:00,
2013-03-12 17:13:00,68.8,60.9,29.91,ESE,117,2.0,4.0,76,0.00,,,0.13,Wunderground v.1.15,2013-03-12 21:13:00,
2013-03-12 17:18:00,69.0,61.1,29.91,ENE,78,2.0,2.0,76,0.00,,,0.13,Wunderground v.1.15,2013-03-12 21:18:00,
2013-03-12 17:23:00,69.1,60.8,29.91,ESE,118,2.0,2.0,75,0.00,,,0.13,Wunderground v.1.15,2013-03-12 21:23:00,
2013-03-12 17:28:00,69.0,61.1,29.91,ESE,106,2.0,2.0,76,0.00,,,0.13,Wunderground v.1.15,2013-03-12 21:28:00,
2013-03-12 17:33:00,69.1,61.2,29.92,East,84,2.0,4.0,76,0.00,,,0.13,Wunderground v.1.15,2013-03-12 21:33:00,
2013-03-12 17:38:00,68.9,60.3,29.92,SE,130,2.0,2.0,74,0.00,,,0.13,Wunderground v.1.15,2013-03-12 21:38:00,
2013-03-12 17:43:00,68.9,60.3,29.92,NNE,19,3.0,3.0,74,0.00,,,0.13,Wunderground v.1.15,2013-03-12 21:43:00,
2013-03-12 17:48:00,69.0,60.0,29.92,ESE,105,2.0,2.0,73,0.00,,,0.13,Wunderground v.1.15,2013-03-12 21:48:00,
2013-03-12 17:53:00,69.0,60.4,29.92,ESE,120,2.0,2.0,74,0.00,,,0.13,Wunderground v.1.15,2013-03-12 21:53:00,
2013-03-12 17:58:00,69.0,60.4,29.92,ESE,107,2.0,3.0,74,0.00,,,0.13,Wunderground v.1.15,2013-03-12 21:58:00,
2013-03-12 18:03:00,68.8,60.2,29.93,ESE,122,2.0,3.0,74,0.00,,,0.13,Wunderground v.1.15,2013-03-12 22:03:00,
2013-03-12 18:08:00,68.8,60.2,29.93,ESE,106,2.0,2.0,74,0.00,,,0.13,Wunderground v.1.15,2013-03-12 22:08:00,
2013-03-12 18:13:00,68.7,58.9,29.93,SE,131,2.0,2.0,71,0.00,,,0.13,Wunderground v.1.15,2013-03-12 22:13:00,
2013-03-12 18:18:00,68.8,58.6,29.93,SE,145,2.0,4.0,70,0.00,,,0.13,Wunderground v.1.15,2013-03-12 22:18:00,
2013-03-12 18:23:00,68.8,59.0,29.93,ESE,106,2.0,4.0,71,0.00,,,0.13,Wunderground v.1.15,2013-03-12 22:23:00,
2013-03-12 18:28:00,68.6,58.8,29.93,ESE,106,2.0,2.0,71,0.00,,,0.13,Wunderground v.1.15,2013-03-12 22:28:00,
2013-03-12 18:33:00,68.4,58.6,29.93,SE,129,2.0,2.0,71,0.00,,,0.13,Wunderground v.1.15,2013-03-12 22:33:00,
2013-03-12 18:38:00,68.1,57.1,29.93,SE,137,2.0,2.0,68,0.00,,,0.13,Wunderground v.1.15,2013-03-12 22:38:00,
2013-03-12 18:43:00,67.8,54.7,29.93,East,91,2.0,2.0,63,0.00,,,0.13,Wunderground v.1.15,2013-03-12 22:43:00,
2013-03-12 18:48:00,67.5,53.6,29.93,SE,126,2.0,2.0,61,0.00,,,0.13,Wunderground v.1.15,2013-03-12 22:48:00,
2013-03-12 18:58:00,66.4,51.2,29.94,East,92,2.0,2.0,58,0.00,,,0.13,Wunderground v.1.15,2013-03-12 22:58:00,
2013-03-12 19:03:00,66.0,50.3,29.94,ESE,110,2.0,2.0,57,0.00,,,0.13,Wunderground v.1.15,2013-03-12 23:03:00,
2013-03-12 19:08:00,65.7,50.5,29.95,ESE,107,2.0,2.0,58,0.00,,,0.13,Wunderground v.1.15,2013-03-12 23:08:00,
2013-03-12 19:13:00,65.3,49.7,29.95,SSE,155,1.0,2.0,57,0.00,,,0.13,Wunderground v.1.15,2013-03-12 23:13:00,
2013-03-12 19:18:00,65.0,49.4,29.95,SE,137,2.0,2.0,57,0.00,,,0.13,Wunderground v.1.15,2013-03-12 23:18:00,
2013-03-12 19:23:00,64.7,49.6,29.95,SE,133,2.0,3.0,58,0.00,,,0.13,Wunderground v.1.15,2013-03-12 23:23:00,
2013-03-12 19:28:00,64.4,49.3,29.96,SE,143,2.0,4.0,58,0.00,,,0.13,Wunderground v.1.15,2013-03-12 23:28:00,
2013-03-12 19:33:00,64.2,49.6,29.96,SE,126,3.0,4.0,59,0.00,,,0.13,Wunderground v.1.15,2013-03-12 23:33:00,
2013-03-12 19:38:00,64.0,49.8,29.96,SE,134,3.0,4.0,60,0.00,,,0.13,Wunderground v.1.15,2013-03-12 23:38:00,
2013-03-12 19:43:00,63.8,50.1,29.97,SE,134,3.0,4.0,61,0.00,,,0.13,Wunderground v.1.15,2013-03-12 23:43:00,
2013-03-12 19:48:00,63.5,50.2,29.97,SE,126,2.0,2.0,62,0.00,,,0.13,Wunderground v.1.15,2013-03-12 23:48:00,
2013-03-12 19:53:00,63.3,50.5,29.97,SE,125,2.0,2.0,63,0.00,,,0.13,Wunderground v.1.15,2013-03-12 23:53:00,
2013-03-12 19:58:00,63.0,50.2,29.97,ESE,103,2.0,3.0,63,0.00,,,0.13,Wunderground v.1.15,2013-03-12 23:58:00,
2013-03-12 20:03:00,62.8,50.4,29.97,ESE,108,2.0,3.0,64,0.00,,,0.13,Wunderground v.1.15,2013-03-13 00:03:00,
2013-03-12 20:08:00,62.5,50.6,29.98,ESE,121,2.0,2.0,65,0.00,,,0.13,Wunderground v.1.15,2013-03-13 00:08:00,
2013-03-12 20:13:00,62.3,50.4,29.98,ESE,103,2.0,2.0,65,0.00,,,0.13,Wunderground v.1.15,2013-03-13 00:13:00,
2013-03-12 20:18:00,62.1,50.6,29.98,SE,135,1.0,1.0,66,0.00,,,0.13,Wunderground v.1.15,2013-03-13 00:18:00,
2013-03-12 20:23:00,61.8,50.7,29.98,SE,134,1.0,1.0,67,0.00,,,0.13,Wunderground v.1.15,2013-03-13 00:23:00,
2013-03-12 20:28:00,61.4,50.7,29.99,SE,134,1.0,1.0,68,0.00,,,0.13,Wunderground v.1.15,2013-03-13 00:28:00,
2013-03-12 20:33:00,61.0,50.8,29.99,ESE,108,0.0,1.0,69,0.00,,,0.13,Wunderground v.1.15,2013-03-13 00:33:00,
2013-03-12 20:38:00,60.8,50.6,29.99,SE,124,1.0,1.0,69,0.00,,,0.13,Wunderground v.1.15,2013-03-13 00:38:00,
2013-03-12 20:43:00,60.5,50.3,29.99,ESE,120,1.0,1.0,69,0.00,,,0.13,Wunderground v.1.15,2013-03-13 00:43:00,
2013-03-12 20:48:00,60.1,50.3,30.00,ESE,120,0.0,1.0,70,0.00,,,0.13,Wunderground v.1.15,2013-03-13 00:48:00,
2013-03-12 20:53:00,59.9,50.1,30.00,ESE,116,1.0,1.0,70,0.00,,,0.13,Wunderground v.1.15,2013-03-13 00:53:00,
2013-03-12 20:58:00,59.8,50.0,30.00,SE,126,1.0,1.0,70,0.00,,,0.13,Wunderground v.1.15,2013-03-13 00:58:00,
2013-03-12 21:03:00,59.6,49.8,30.00,SE,128,1.0,1.0,70,0.00,,,0.13,Wunderground v.1.15,2013-03-13 01:03:00,
2013-03-12 21:13:00,58.9,49.5,30.00,East,84,0.0,1.0,71,0.00,,,0.13,Wunderground v.1.15,2013-03-13 01:13:00,
2013-03-12 21:18:00,58.6,50.0,30.01,East,94,0.0,0.0,73,0.00,,,0.13,Wunderground v.1.15,2013-03-13 01:18:00,
2013-03-12 21:23:00,58.1,49.5,30.01,East,94,0.0,0.0,73,0.00,,,0.13,Wunderground v.1.15,2013-03-13 01:23:00,
2013-03-12 21:28:00,57.6,49.4,30.01,East,94,0.0,0.0,74,0.00,,,0.13,Wunderground v.1.15,2013-03-13 01:28:00,
2013-03-12 21:38:00,57.1,49.2,30.02,ESE,109,0.0,0.0,75,0.00,,,0.13,Wunderground v.1.15,2013-03-13 01:38:00,
2013-03-12 21:43:00,56.8,49.0,30.02,ESE,108,0.0,0.0,75,0.00,,,0.13,Wunderground v.1.15,2013-03-13 01:43:00,
2013-03-12 21:53:00,56.1,48.6,30.02,East,100,0.0,0.0,76,0.00,,,0.13,Wunderground v.1.15,2013-03-13 01:53:00,
2013-03-12 21:58:00,55.9,48.8,30.02,East,100,0.0,0.0,77,0.00,,,0.13,Wunderground v.1.15,2013-03-13 01:58:00,
2013-03-12 22:03:00,55.6,48.8,30.03,East,101,0.0,0.0,78,0.00,,,0.13,Wunderground v.1.15,2013-03-13 02:03:00,
2013-03-12 22:08:00,55.5,49.1,30.03,East,100,0.0,0.0,79,0.00,,,0.13,Wunderground v.1.15,2013-03-13 02:08:00,
2013-03-12 22:13:00,55.3,48.9,30.03,East,100,0.0,0.0,79,0.00,,,0.13,Wunderground v.1.15,2013-03-13 02:13:00,
2013-03-12 22:23:00,55.0,48.9,30.03,East,100,0.0,0.0,80,0.00,,,0.13,Wunderground v.1.15,2013-03-13 02:23:00,
2013-03-12 22:28:00,54.8,48.7,30.03,East,100,0.0,0.0,80,0.00,,,0.13,Wunderground v.1.15,2013-03-13 02:28:00,
2013-03-12 22:33:00,54.7,48.6,30.03,East,100,0.0,0.0,80,0.00,,,0.13,Wunderground v.1.15,2013-03-13 02:33:00,
2013-03-12 22:38:00,54.6,48.6,30.03,East,100,0.0,0.0,80,0.00,,,0.13,Wunderground v.1.15,2013-03-13 02:38:00,
2013-03-12 22:43:00,54.5,48.8,30.03,East,100,0.0,0.0,81,0.00,,,0.13,Wunderground v.1.15,2013-03-13 02:43:00,
2013-03-12 22:48:00,54.5,48.8,30.03,East,101,0.0,0.0,81,0.00,,,0.13,Wunderground v.1.15,2013-03-13 02:48:00,
2013-03-12 22:53:00,54.4,48.7,30.03,East,101,0.0,0.0,81,0.00,,,0.13,Wunderground v.1.15,2013-03-13 02:53:00,
2013-03-12 22:58:00,54.3,48.6,30.03,East,100,0.0,0.0,81,0.00,,,0.13,Wunderground v.1.15,2013-03-13 02:58:00,
2013-03-12 23:03:00,54.1,48.7,30.04,East,100,0.0,0.0,82,0.00,,,0.13,Wunderground v.1.15,2013-03-13 03:03:00,
2013-03-12 23:08:00,53.8,48.4,30.03,East,101,0.0,0.0,82,0.00,,,0.13,Wunderground v.1.15,2013-03-13 03:08:00,
2013-03-12 23:13:00,53.7,48.3,30.04,East,101,0.0,0.0,82,0.00,,,0.13,Wunderground v.1.15,2013-03-13 03:13:00,
2013-03-12 23:18:00,53.6,48.6,30.03,East,100,0.0,0.0,83,0.00,,,0.13,Wunderground v.1.15,2013-03-13 03:18:00,
2013-03-12 23:23:00,53.4,48.4,30.03,East,100,0.0,0.0,83,0.00,,,0.13,Wunderground v.1.15,2013-03-13 03:23:00,
2013-03-12 23:28:00,53.3,48.6,30.03,East,100,0.0,0.0,84,0.00,,,0.13,Wunderground v.1.15,2013-03-13 03:28:00,
2013-03-12 23:33:00,53.1,48.4,30.04,East,100,0.0,0.0,84,0.00,,,0.13,Wunderground v.1.15,2013-03-13 03:33:00,
2013-03-12 23:38:00,52.9,48.2,30.04,East,101,0.0,0.0,84,0.00,,,0.13,Wunderground v.1.15,2013-03-13 03:38:00,
2013-03-12 23:43:00,52.6,47.9,30.04,East,100,0.0,0.0,84,0.00,,,0.13,Wunderground v.1.15,2013-03-13 03:43:00,
2013-03-12 23:48:00,52.5,48.1,30.04,East,101,0.0,0.0,85,0.00,,,0.13,Wunderground v.1.15,2013-03-13 03:48:00,
2013-03-12 23:53:00,52.3,48.2,30.04,East,100,0.0,0.0,86,0.00,,,0.13,Wunderground v.1.15,2013-03-13 03:53:00,
2013-03-12 23:58:00,52.1,48.0,30.04,East,100,0.0,1.0,86,0.00,,,0.13,Wunderground v.1.15,2013-03-13 03:58:00,